SCP
0 0 0 0 0 0 -0 -0 -0 0 0 0 0 0 0 0 0 0 0 1 1 1 1 0 0 0 0 0 0 0 0 0 0 0 0 0 0 0 0 0 0 0 0 0 0 0 0 0 0
0 0 0 0 0 0 0 0 0 0 0 0 0 0 0 0 0 0 0 1 1 1 1 0 1 0 0 0 0 0 0 0 0 0 0 0 0 0 0 0 0 0 0 0 0 0 0 0 0
0 0 0 0 0 0 0 0 0 0 0 0 0 0 0 0 0 0 0 1 1 1 1 1 1 0 0 0 0 0 0 0 0 0 0 0 0 0 0 0 0 0 0 0 0 0 0 0 0
0 0 0 0 0 0 0 0 0 0 0 0 0 0 0 0 0 0 0 1 1 1 1 1 1 0 0 0 0 0 0 0 0 0 0 0 0 0 0 0 0 0 0 0 0 0 0 0 0
0 0 0 0 0 0 0 0 0 0 0 0 0 0 0 0 0 0 0 0 1 1 1 1 1 1 0 0 0 0 0 0 0 0 0 0 0 0 0 0 0 0 0 0 0 0 0 0 0
0 0 0 0 0 0 0 0 0 0 0 0 0 0 0 0 0 0 0 0 1 1 1 1 1 1 0 0 0 0 0 0 0 0 0 0 0 0 0 0 0 0 0 0 0 0 0 0 -0
0 0 0 0 0 0 0 0 0 0 0 0 0 0 0 0 0 0 0 0 1 1 1 1 1 1 0 0 0 0 0 0 0 0 0 0 0 0 0 0 0 0 0 0 0 0 0 -0 -0
0 0 0 0 0 0 0 0 0 0 0 0 0 0 0 0 0 0 0 1 1 1 1 1 1 1 0 0 0 0 0 0 0 0 0 0 0 0 0 0 -0 -0 -0 -0 -0 -0 -0 -0 -0
0 0 0 0 0 0 0 0 0 0 0 0 0 0 0 0 0 0 1 1 1 1 1 1 1 1 0 0 0 0 0 0 0 0 0 0 0 0 0 0 -0 -0 -0 -0 -0 -0 -0 -0 -0
0 0 0 0 0 0 0 0 0 0 0 0 0 0 0 0 0 0 1 1 1 1 1 1 1 1 1 0 0 0 0 0 0 0 0 0 -0 0 0 0 0 -0 -0 -0 -0 -0 -0 0 0
0 0 0 0 0 0 0 0 0 0 0 0 0 0 0 0 0 0 0 1 1 1 1 1 1 1 1 1 0 0 0 0 0 0 0 -0 -0 0 0 0 0 0 0 0 0 0 0 0 0
0 0 0 0 0 0 0 0 0 0 0 0 0 0 0 0 0 0 0 0 1 1 1 1 1 1 1 1 1 0 0 0 0 0 0 -0 -0 0 0 0 0 0 0 0 0 0 0 0 0
0 0 0 0 0 0 0 0 0 0 0 0 0 0 0 0 0 0 0 0 0 1 1 1 1 1 1 1 1 1 0 0 0 0 0 0 0 0 0 0 0 0 0 0 0 0 0 0 0
0 0 0 0 0 0 0 0 0 0 0 0 0 0 0 0 0 0 0 0 0 1 1 1 1 2 1 1 1 1 1 0 0 0 0 0 0 0 0 0 0 0 0 0 0 0 0 0 0
0 0 0 0 0 0 0 0 0 0 0 0 0 0 0 0 0 0 0 0 0 0 1 1 2 2 2 2 1 1 1 1 0 0 0 0 0 0 0 0 0 0 0 0 0 0 0 0 0
0 0 0 0 0 0 0 0 0 0 0 0 0 0 0 0 0 0 0 0 0 0 1 1 2 2 2 2 2 2 1 1 1 0 0 0 0 0 0 0 0 0 0 0 0 0 0 0 0
0 0 0 0 0 0 0 0 0 0 0 0 0 0 0 0 0 0 0 0 0 0 0 1 2 2 2 2 2 2 2 1 1 1 0 0 0 0 0 0 0 0 0 0 0 0 0 0 0
0 0 0 0 0 0 0 0 0 0 0 0 0 0 0 0 0 0 0 0 0 0 0 1 1 2 2 2 3 2 2 1 1 1 0 0 0 0 0 0 0 0 0 0 0 0 0 0 0
0 0 0 0 0 0 0 0 0 0 0 0 0 0 0 0 0 0 0 0 0 0 0 0 1 2 2 3 3 3 2 1 1 1 0 0 0 0 0 0 0 0 0 0 0 0 0 0 0
0 0 0 0 0 0 0 0 0 0 0 0 0 0 0 0 0 0 0 0 0 0 0 0 1 1 2 2 3 2 1 1 0 0 0 0 0 0 0 0 0 0 0 0 0 0 0 0 0
0 0 0 0 0 0 0 0 0 0 0 0 0 0 0 0 0 0 0 0 0 0 0 0 0 1 2 2 2 1 1 0 0 0 0 0 0 0 0 0 0 0 0 0 0 0 0 0 0
0 0 0 0 0 0 0 0 0 0 0 0 0 0 0 0 0 0 0 0 0 0 0 0 0 1 1 2 2 1 0 0 0 0 0 0 0 0 0 0 0 0 0 0 0 0 0 0 0
0 0 0 0 0 0 0 0 0 0 0 0 0 0 0 0 0 0 0 0 0 0 0 0 0 0 1 1 1 1 0 0 0 0 0 0 0 0 0 0 0 0 0 0 0 0 0 0 0
0 0 0 0 0 0 0 0 0 0 0 0 0 0 0 0 0 0 0 0 0 0 0 0 0 0 1 1 1 0 0 0 0 0 0 0 0 0 0 0 0 0 0 0 0 0 0 0 0
0 0 0 0 0 0 0 0 0 0 0 0 0 0 0 0 0 0 0 0 0 0 0 0 0 0 1 1 1 0 0 0 0 0 0 0 0 0 0 0 0 0 0 0 0 0 0 0 0
0 0 0 0 0 0 0 0 0 0 0 0 0 0 0 0 0 0 0 0 0 0 0 0 0 0 0 0 0 0 0 0 0 0 0 0 0 0 0 0 0 0 0 0 0 0 0 0 0
0 0 0 0 0 0 0 0 0 0 0 0 0 0 0 0 0 0 0 0 0 0 0 0 0 0 0 0 0 0 0 0 0 0 0 0 0 0 0 0 0 0 0 0 0 0 0 0 0
0 0 0 0 0 0 0 0 0 0 0 0 0 0 0 0 0 0 0 0 0 0 0 0 0 0 0 0 0 0 0 0 0 0 0 0 0 0 0 0 0 0 0 0 0 0 0 0 0
0 0 0 0 0 0 0 0 0 0 0 0 0 0 0 0 0 0 0 0 0 0 0 0 0 0 0 0 0 0 0 0 0 0 0 0 0 0 0 0 0 0 0 0 0 0 0 0 0
0 0 0 0 0 0 0 0 0 0 0 0 0 0 0 0 0 0 0 0 0 0 0 0 0 0 0 0 0 0 0 0 0 0 0 0 0 0 0 0 0 0 0 0 0 0 0 0 0
Wind_Speed
13 14 9 3 3 5 11 11 10 1 2 4 6 5 8 7 6 8 4 11 18 17 16 16 17 16 16 15 14 13 13 13 13 13 13 13 12 11 10 10 10 11 12 12 13 13 13 13 12
10 11 5 3 5 7 10 13 9 3 2 7 4 2 6 1 9 8 6 12 17 17 15 14 17 17 16 15 14 13 13 12 12 13 13 12 11 11 10 10 10 11 11 12 13 13 13 12 11
10 11 5 4 7 11 11 6 1 5 5 1 3 5 6 4 9 8 8 12 16 15 13 17 17 17 16 15 14 13 13 12 12 13 13 12 12 11 11 10 10 10 10 11 11 11 11 10 9
6 5 5 7 13 14 15 12 1 6 2 4 5 4 3 7 5 9 11 11 14 14 15 16 17 18 17 15 14 14 13 13 13 13 12 12 12 11 11 11 10 9 10 10 10 10 9 8 7
5 4 8 11 16 15 12 11 2 3 3 5 4 5 5 6 11 13 8 10 13 14 16 15 17 17 17 15 14 14 13 13 13 13 12 12 12 11 11 10 9 9 9 9 9 8 8 7 5
4 5 8 12 16 15 14 11 3 3 6 4 2 6 4 8 10 10 7 7 11 15 16 14 16 16 16 15 14 14 13 13 13 12 12 12 12 11 10 10 9 8 8 8 7 7 6 5 5
6 6 12 13 13 13 14 10 7 6 7 6 4 4 4 8 9 10 8 7 11 15 15 12 11 12 14 14 13 12 12 12 11 11 11 10 10 10 10 9 8 7 7 6 6 6 5 5 4
6 6 12 14 14 13 10 7 7 7 7 5 1 2 3 7 7 8 7 7 10 13 14 12 11 10 10 10 12 12 11 10 10 10 10 10 10 10 10 8 7 7 6 6 5 5 4 4 3
6 8 11 11 11 11 11 6 4 5 4 6 2 2 7 7 6 6 5 5 7 10 12 12 12 11 11 10 11 11 10 10 10 9 10 9 6 7 6 8 8 7 6 6 5 4 3 3 2
5 8 12 10 9 8 9 5 2 4 6 7 6 4 8 7 7 6 6 5 6 7 10 11 12 11 11 10 9 7 7 7 6 6 7 5 5 5 8 10 9 8 7 6 5 4 4 3 2
7 7 9 12 12 7 8 6 2 4 6 8 9 8 8 8 7 8 9 9 8 7 7 10 11 11 10 8 8 6 5 6 7 9 9 6 4 5 6 4 5 5 6 4 4 3 1 1 2
10 9 10 10 6 6 6 8 8 7 7 7 6 2 6 8 8 8 9 10 12 12 10 8 10 10 10 9 7 7 6 6 6 7 10 5 3 4 5 4 5 4 3 2 2 1 3 3 3
14 12 10 9 6 5 7 9 10 11 10 9 8 4 2 4 5 6 7 8 9 13 14 10 9 10 9 9 6 6 6 6 6 5 6 6 4 3 4 3 3 3 3 3 2 3 4 3 4
5 8 11 10 7 6 9 11 12 11 10 11 11 9 7 7 7 7 6 7 7 9 13 12 11 10 9 8 7 6 6 6 6 5 5 6 5 4 4 4 4 3 3 3 3 4 3 3 3
5 7 9 10 9 7 8 13 16 16 14 14 13 11 11 10 9 10 9 7 7 7 10 13 13 11 10 10 9 6 5 6 5 6 6 6 6 5 5 4 4 4 4 4 4 4 3 3 2
5 7 7 9 13 11 9 11 9 12 16 17 15 13 12 11 12 12 11 9 8 7 8 12 12 12 11 9 9 6 6 6 5 6 6 7 7 7 6 5 4 4 4 4 4 3 3 3 3
6 7 9 8 9 7 10 9 8 8 6 9 11 11 11 12 13 13 12 11 10 9 8 10 11 12 11 9 7 7 6 6 5 5 5 6 7 8 6 5 5 5 5 4 4 4 3 3 3
6 8 8 7 6 6 9 10 9 10 10 8 8 9 10 11 11 11 12 11 10 10 10 11 12 12 10 8 6 5 5 5 4 4 5 7 7 8 7 5 6 6 5 4 4 4 3 3 2
6 6 6 4 4 3 8 12 12 11 13 13 13 12 12 12 11 10 10 9 9 9 10 10 12 12 10 8 8 7 6 5 4 3 6 7 8 9 8 6 6 6 5 5 5 4 4 3 3
8 7 8 7 6 7 10 16 16 18 18 17 16 14 14 13 12 11 10 9 9 9 9 9 10 12 12 9 8 6 6 5 4 4 5 7 9 9 8 8 6 6 6 6 5 4 3 2 3
7 7 7 8 10 8 11 13 13 14 18 17 16 15 13 13 12 11 10 10 9 9 9 8 9 10 11 11 8 8 7 5 4 4 4 6 8 8 8 8 7 6 6 5 5 4 4 2 2
6 4 5 6 5 5 5 8 7 8 7 10 12 12 11 10 10 9 9 9 9 9 8 8 9 10 11 13 13 15 10 8 6 5 5 7 8 8 9 9 8 7 6 6 5 4 3 3 2
2 4 2 4 5 6 4 8 10 8 8 7 7 7 7 7 8 8 8 8 8 7 7 8 9 10 11 13 15 14 10 7 9 9 10 8 7 8 8 9 8 8 6 6 6 4 4 3 2
2 0 4 3 2 6 7 8 9 3 3 1 1 1 2 3 4 5 5 6 6 5 5 6 8 9 11 13 15 14 14 14 15 13 12 9 7 7 8 9 8 8 6 6 5 4 5 4 3
4 3 2 3 4 9 8 8 9 6 3 2 3 3 3 3 4 4 4 5 5 5 5 6 8 8 10 12 13 12 14 16 17 16 13 12 9 8 8 9 8 7 6 6 5 5 4 3 2
8 4 3 3 4 3 3 8 7 7 4 2 2 3 3 4 5 5 5 5 5 6 6 7 8 8 10 11 11 11 14 11 10 11 12 11 9 8 9 9 9 8 7 6 5 4 3 2 2
7 6 4 3 4 5 7 7 8 7 4 2 2 3 4 5 6 7 7 6 6 6 7 8 9 9 10 11 11 13 13 12 12 12 11 10 10 10 10 10 10 8 6 6 5 3 2 3 2
4 4 3 2 3 6 7 7 5 2 1 2 2 4 6 7 7 8 7 6 6 6 6 7 9 10 11 12 12 11 12 12 13 12 13 13 13 11 12 10 9 8 6 6 4 3 2 1 1
7 4 5 4 4 3 6 7 3 6 5 5 5 6 7 7 8 7 7 6 6 6 6 7 8 10 12 13 13 13 12 13 13 12 13 14 13 12 11 10 9 8 6 5 3 3 3 1 2
10 8 7 4 5 5 5 10 7 5 5 7 8 8 8 7 7 7 7 6 5 4 5 7 9 11 13 14 14 13 13 13 13 14 14 13 13 11 10 9 8 7 6 4 3 2 2 2 3
Wind_Direction
296 279 266 255 248 235 246 254 257 279 334 6 29 356 327 355 52 109 153 112 120 128 135 138 134 130 126 121 118 117 118 118 118 117 113 107 102 98 94 90 82 71 69 70 72 78 82 85 85
287 281 271 242 239 243 246 241 241 178 55 35 13 289 279 346 98 113 120 119 126 130 139 138 135 132 128 124 121 120 119 119 119 119 116 110 106 102 97 94 87 80 77 75 75 78 79 81 81
266 264 253 227 226 240 258 272 149 118 67 27 257 228 242 64 104 119 121 129 129 134 139 134 138 133 130 128 126 124 124 124 124 121 118 114 109 104 100 98 93 88 86 83 81 82 81 80 76
248 226 240 242 242 234 249 276 57 111 140 220 260 246 120 55 75 110 125 137 133 134 128 138 138 136 133 132 131 129 129 128 126 125 122 119 114 109 106 104 102 97 93 89 87 85 83 81 76
243 233 224 234 244 250 256 262 132 139 206 204 214 272 95 87 95 114 142 146 139 132 129 141 139 138 137 136 137 137 136 134 133 132 130 126 120 116 114 113 110 104 97 91 89 88 86 83 74
217 227 227 230 240 242 249 255 168 186 249 223 198 266 110 126 119 134 146 149 136 128 132 141 142 141 141 141 142 143 143 142 142 141 138 133 127 125 124 121 116 107 99 93 90 88 86 80 66
233 232 240 242 244 241 237 230 180 185 245 243 197 250 128 128 122 134 144 156 130 128 133 141 145 145 145 145 146 148 148 148 148 146 139 133 132 134 133 130 123 113 103 96 92 91 89 84 74
246 254 243 243 253 257 256 225 176 186 234 265 252 255 80 110 123 133 146 148 131 133 140 150 154 154 152 151 151 151 150 152 152 143 136 136 141 145 146 140 129 123 114 108 102 101 102 105 104
257 244 241 237 245 260 270 265 178 162 248 276 252 126 98 110 122 126 134 136 136 143 149 157 159 161 159 159 158 154 153 156 150 143 149 152 165 164 154 138 136 132 128 124 123 133 153 158 176
219 240 240 253 266 280 281 273 191 179 214 250 258 171 129 137 149 152 157 159 151 159 159 160 163 164 163 160 155 162 165 162 171 168 173 192 196 158 139 137 142 145 145 144 161 185 220 213 183
211 237 256 262 279 308 320 321 305 251 236 226 228 207 164 164 175 179 181 178 175 178 176 167 167 166 164 155 163 169 171 169 194 182 184 198 167 130 133 146 147 159 164 175 187 204 228 78 86
240 240 245 261 301 334 316 315 304 269 259 272 280 262 161 171 190 198 199 190 179 178 183 181 170 167 166 163 171 168 170 170 191 179 180 183 151 153 157 159 165 168 164 151 144 126 89 53 56
237 254 263 275 295 304 300 289 292 285 285 286 289 288 245 217 223 218 211 206 188 178 176 183 177 172 171 168 172 172 172 170 178 167 170 156 142 158 149 137 133 127 119 117 87 67 67 45 41
249 257 261 264 263 264 262 263 260 263 272 273 271 265 250 240 246 252 234 216 206 183 173 175 179 178 175 172 172 175 171 167 163 158 168 153 150 158 140 125 112 100 93 90 86 75 67 59 45
301 291 276 257 243 239 253 253 242 246 250 255 253 251 247 242 242 242 238 222 210 194 176 172 178 181 180 177 176 176 170 166 160 159 168 158 151 146 132 124 117 113 106 90 72 65 59 58 21
234 246 249 237 217 217 221 255 255 243 226 235 242 245 244 238 235 236 234 224 215 202 185 176 176 180 182 180 176 173 171 164 159 156 162 161 152 138 127 124 123 115 100 91 83 62 62 54 23
213 232 231 236 183 195 212 252 260 274 248 233 233 235 238 239 233 231 229 221 211 205 194 180 171 175 179 176 171 168 163 159 159 153 155 157 144 132 127 124 122 109 97 91 87 60 55 49 12
201 220 235 233 169 198 238 256 264 276 278 261 250 246 242 239 236 231 227 223 213 206 197 183 172 173 172 167 162 155 151 154 151 147 148 145 138 129 120 117 114 108 105 103 103 105 74 47 350
314 306 287 288 332 308 269 271 267 262 257 251 243 241 243 244 243 239 235 228 219 208 200 189 176 173 170 169 168 166 161 148 135 132 135 133 126 120 119 117 112 113 115 117 116 111 96 45 356
267 280 287 300 318 311 283 276 266 253 247 243 242 238 236 240 241 239 235 232 227 217 202 194 181 175 174 174 168 156 134 117 101 93 101 112 114 118 121 119 117 114 111 100 95 94 99 67 34
244 256 274 294 323 292 278 280 254 246 232 232 235 238 238 237 237 237 235 233 229 224 210 201 191 180 172 162 145 125 102 93 97 102 97 102 110 114 121 122 119 114 110 109 102 98 101 117 67
246 248 265 286 294 293 322 296 277 277 259 227 222 224 230 235 237 238 238 237 229 223 213 205 195 183 170 161 157 156 159 156 154 136 120 113 114 118 122 123 120 114 111 114 112 99 102 107 114
228 41 319 290 295 297 258 260 275 240 250 240 220 214 216 222 228 234 235 236 236 225 211 205 196 185 172 167 162 162 158 137 131 129 128 123 121 122 125 123 120 117 115 114 106 95 83 95 101
136 100 261 257 299 268 225 224 275 252 254 267 268 268 237 242 247 246 243 238 240 236 217 204 193 184 172 165 162 164 157 146 146 147 143 136 131 126 125 122 119 117 116 118 114 107 87 82 84
173 190 211 198 223 250 231 227 252 267 307 328 329 330 336 331 315 293 277 260 244 233 220 203 187 179 166 160 161 162 152 151 154 152 149 145 143 141 138 130 123 118 118 115 108 100 99 95 94
190 207 226 243 259 294 247 239 253 248 234 214 279 296 314 315 308 296 284 273 259 236 213 197 185 174 161 156 156 149 142 146 150 150 148 146 144 141 136 128 120 121 122 120 114 115 130 136 182
177 217 290 335 307 282 262 270 281 239 224 208 264 290 301 301 296 287 284 276 267 248 216 195 181 169 157 151 143 139 140 142 144 142 138 135 136 138 133 127 125 128 127 124 124 133 159 169 201
225 188 177 188 248 272 272 256 249 340 37 33 341 314 308 302 299 297 290 281 270 246 218 193 174 160 149 140 137 137 135 137 139 139 138 137 138 134 132 128 126 125 123 128 136 143 147 158 226
194 208 204 214 247 258 282 267 332 5 16 8 338 321 307 303 298 294 293 290 278 247 208 176 161 144 136 130 127 129 130 133 135 135 134 134 132 133 132 130 128 128 131 136 140 153 155 206 258
197 203 198 208 234 230 265 270 291 313 346 342 329 320 313 307 299 294 292 289 281 231 176 151 140 131 127 124 125 126 129 133 133 131 131 131 130 129 127 126 125 125 124 125 132 151 169 233 259